Weather History for KHOT - January, 2013

Change the Weather History Date:

Tuesday, January 15, 2013

  Actual Average Record
Temperature  
Mean Temperature 30 °F -  
Max Temperature 34 °F 51 °F 72 °F (1950)
Min Temperature 27 °F 29 °F 10 °F (1979)
Degree Days  
Heating Degree Days 34    
Moisture  
Dew Point 22 °F    
Average Humidity 70    
Maximum Humidity 87    
Minimum Humidity 51    
Precipitation  
Precipitation 0.02 in - - ()
Sea Level Pressure  
Sea Level Pressure 30.20 in    
Wind  
Wind Speed 6 mph (North)    
Max Wind Speed 10 mph    
Max Gust Speed 18 mph    
Visibility 9 miles    
Events Snow    
Averages and records for this station are not official NWS values.
T = Trace of Precipitation, MM = Missing Value Source: NWS Daily Summary

Daily Weather History Graph

Daily Weather History Graph

Search for Another Location

Airport or City:

Trip Planner

Search our weather history database for the weather conditions in past years. The results will help you decide how hot, cold, wet, or windy it might be!

Date:

Astronomy

Jan. 15, 2013 Rise Set
Actual Time 7:18 AM CST 5:25 PM CST
Civil Twilight 6:51 AM CST 5:52 PM CST
Nautical Twilight 6:20 AM CST 6:23 PM CST
Astronomical Twilight 5:50 AM CST 6:53 PM CST
Moon 9:37 AM CST (1/15) 10:01 PM CST (1/15)
Length of Visible Light 11h 01m
Length of Day
10h 06m
Waxing Crescent, 19% of the Moon is Illuminated
Jan 15
Waxing Crescent
Jan 18
First Quarter
Jan 26
Full
Feb 3
Last Quarter
Feb 10
New

Hourly Weather History & Observations

Time (CST) Temp. Windchill Dew Point Humidity Pressure Visibility Wind Dir Wind Speed Gust Speed Precip Events Conditions
12:53 AM 28.9 °F 21.1 °F 16.0 °F 58% 30.27 in 10.0 mi NE 8.1 mph - N/A   Clear
1:53 AM 28.4 °F 19.7 °F 15.8 °F 59% 30.25 in 10.0 mi ENE 9.2 mph - N/A   Clear
2:53 AM 28.0 °F 21.7 °F 15.1 °F 58% 30.25 in 10.0 mi NE 5.8 mph - N/A   Clear
3:53 AM 28.0 °F 20.8 °F 14.0 °F 56% 30.24 in 10.0 mi NNE 6.9 mph - N/A   Clear
4:53 AM 28.0 °F 19.3 °F 14.0 °F 56% 30.22 in 10.0 mi NNE 9.2 mph - N/A   Clear
5:53 AM 27.0 °F - 12.9 °F 56% 30.23 in 10.0 mi Calm Calm - N/A   Clear
6:53 AM 28.0 °F 21.7 °F 12.0 °F 51% 30.23 in 10.0 mi East 5.8 mph - N/A   Scattered Clouds
7:53 AM 28.0 °F 19.3 °F 12.9 °F 53% 30.22 in 10.0 mi ENE 9.2 mph - N/A   Overcast
8:53 AM 28.9 °F 23.9 °F 12.9 °F 51% 30.28 in 10.0 mi Variable 4.6 mph - 0.00 in   Overcast
9:53 AM 30.0 °F 25.2 °F 15.1 °F 54% 30.32 in 8.0 mi Variable 4.6 mph - 0.00 in Snow Light Snow
10:48 AM 28.4 °F 20.4 °F 17.6 °F 64% 30.25 in 1.8 mi NE 8.1 mph 18.4 mph 0.01 in Snow Light Snow
10:53 AM 28.0 °F 18.6 °F 19.0 °F 69% 30.26 in 2.0 mi NE 10.4 mph 18.4 mph 0.01 in Snow Light Snow
11:04 AM 28.4 °F 21.2 °F 19.4 °F 69% 30.26 in 5.0 mi Variable 6.9 mph 17.3 mph 0.00 in Snow Light Snow
11:53 AM 28.9 °F 23.9 °F 21.0 °F 72% 30.23 in 9.0 mi Variable 4.6 mph - 0.01 in   Overcast
12:53 PM 30.0 °F 26.5 °F 23.0 °F 75% 30.18 in 10.0 mi NNE 3.5 mph - 0.00 in   Overcast
1:53 PM 30.9 °F 27.5 °F 26.1 °F 82% 30.15 in 10.0 mi Variable 3.5 mph - 0.00 in   Overcast
2:53 PM 32.0 °F 27.5 °F 27.0 °F 82% 30.15 in 10.0 mi ENE 4.6 mph - 0.00 in   Overcast
3:53 PM 33.1 °F 28.7 °F 27.0 °F 78% 30.15 in 10.0 mi NNE 4.6 mph - N/A   Overcast
4:02 PM 33.8 °F 29.6 °F 26.6 °F 75% 30.14 in 10.0 mi North 4.6 mph - N/A   Overcast
4:53 PM 34.0 °F - 28.0 °F 79% 30.16 in 10.0 mi Calm Calm - N/A   Overcast
5:53 PM 33.1 °F 27.7 °F 28.9 °F 85% 30.17 in 10.0 mi NW 5.8 mph - N/A   Overcast
6:01 PM 32.0 °F 27.5 °F 28.4 °F 87% 30.16 in 10.0 mi NW 4.6 mph - N/A   Overcast
6:53 PM 32.0 °F 25.6 °F 27.0 °F 82% 30.17 in 10.0 mi NNW 6.9 mph - N/A   Overcast
7:49 PM 32.0 °F 26.4 °F 26.6 °F 80% 30.16 in 10.0 mi NNW 5.8 mph - N/A   Overcast
7:53 PM 32.0 °F 28.7 °F 27.0 °F 82% 30.17 in 10.0 mi NW 3.5 mph - N/A   Overcast
8:43 PM 32.0 °F 28.7 °F 26.6 °F 80% 30.16 in 10.0 mi NNW 3.5 mph - N/A   Overcast
8:53 PM 32.0 °F 27.5 °F 27.0 °F 82% 30.16 in 10.0 mi NW 4.6 mph - N/A   Overcast
9:53 PM 33.1 °F 24.9 °F 27.0 °F 78% 30.17 in 10.0 mi NNW 10.4 mph - N/A   Overcast
10:12 PM 33.8 °F 28.6 °F 26.6 °F 75% 30.16 in 10.0 mi NNW 5.8 mph - N/A   Overcast
10:53 PM 33.1 °F 30.0 °F 27.0 °F 78% 30.18 in 10.0 mi NW 3.5 mph - N/A   Overcast